Location: Unspecified
(49.5170°N, 0.0000°E)
Time: 09:50:57
(UTC+00:00)

ACS3 Solar Sail - Visible Passes

Search period start: 04 April 2026 00:00
Search period end: 14 April 2026 00:00
Orbit: 874 x 980 km, 97.2° (Epoch: 29 March)

Date Brightness Start Highest point End Pass type
(mag) Time Alt. Az. Time Alt. Az. Time Alt. Az.
4 Apr 1.7 01:40:59 10° NNE 01:46:32 78° NNW 01:46:32 78° NNW visible
4 Apr 3.3 03:24:45 10° NNW 03:28:36 18° NW 03:30:09 17° WNW visible
5 Apr 3.5 00:09:33 10° NE 00:13:20 22° ENE 00:13:20 22° ENE visible
5 Apr 1.7 01:51:10 10° N 01:56:56 71° WNW 01:56:56 71° WNW visible
5 Apr 3.5 03:35:16 10° NNW 03:38:35 16° NW 03:40:32 13° WNW visible
6 Apr 3.2 00:19:23 10° NNE 00:23:41 26° ENE 00:23:41 26° ENE visible
6 Apr 1.8 02:01:19 10° N 02:07:11 60° WNW 02:07:17 60° WNW visible
6 Apr 3.7 03:45:51 10° NNW 03:48:29 13° NW 03:50:52 11° WNW visible
7 Apr 3.0 00:29:14 10° NNE 00:33:58 31° E 00:33:58 31° E visible
7 Apr 2.0 02:11:26 10° N 02:17:11 51° WNW 02:17:33 50° W visible
7 Apr 3.8 03:56:41 10° NNW 03:58:20 11° NW 03:59:59 10° WNW visible
8 Apr 2.7 00:39:04 10° NNE 00:44:12 38° E 00:44:12 38° E visible
8 Apr 2.2 02:21:31 10° N 02:27:07 43° WNW 02:27:47 41° W visible
9 Apr 2.4 00:48:54 10° NNE 00:54:22 45° E 00:54:22 45° E visible
9 Apr 2.5 02:31:34 10° N 02:36:58 37° WNW 02:37:56 34° W visible
10 Apr 2.1 00:58:42 10° NNE 01:04:28 54° E 01:04:28 54° E visible
10 Apr 2.7 02:41:35 10° N 02:46:45 31° WNW 02:48:03 29° W visible
10 Apr 4.0 23:29:01 10° ENE 23:30:55 11° E 23:30:57 11° E visible
11 Apr 1.9 01:08:28 10° NNE 01:14:28 65° E 01:14:31 65° ESE visible
11 Apr 2.9 02:51:33 10° N 02:56:28 27° WNW 02:58:05 24° W visible
11 Apr 3.8 23:37:48 10° NE 23:40:53 14° E 23:40:56 14° E visible
12 Apr 1.7 01:18:13 10° NNE 01:24:16 77° ESE 01:24:30 75° SE visible
12 Apr 3.1 03:01:31 10° N 03:06:06 23° WNW 03:08:05 20° W visible
12 Apr 3.7 23:46:56 10° NE 23:50:47 17° E 23:50:52 17° E visible
13 Apr 1.6 01:27:54 10° NNE 01:33:59 89° ESE 01:34:26 78° S visible
13 Apr 3.3 03:11:27 10° NNW 03:15:39 20° WNW 03:18:00 16° W visible
